[[{"header":{"parameterUnit":"m.s-1","parameterCategory":1,"la1":30.2991,"la2":30.254,"lo1":-89.0895,"lo2":-89.0444,"dx":0.0017,"dy":0.0017,"nx":28,"ny":28,"refTime":"2022-11-26T09:00:00:Z","depth":0,"parameterNumber":2,"parameterNumberName":"U-component_of_WINDS"},"data":[0,0,0,0,0,0,0,0,0,0,0,0,0,0,0,0,0,0,0,0,0,0,0,0,0,0,0,0,0,0,0,0,0,0,0,0,0,0,0,0,0,0,0,0,0,0,0,0,0,0,0,0,0,0,0,0,0,0,3.535,3.5352,0,3.5503,3.5505,3.5507,3.547,3.5467,3.5464,3.5462,3.5623,3.563,3.5637,0,0,0,0,0,0,0,0,0,0,0,0,0,3.5032,3.5038,3.535,3.5352,3.5354,3.5503,3.5505,3.5507,3.5471,3.5467,3.5464,3.546,3.5621,3.5629,3.5638,0,0,0,0,0,0,0,0,0,0,0,0,0,3.5177,3.504,3.535,3.5353,3.5355,3.5503,3.5505,3.5508,3.5472,3.5467,3.5463,3.5459,3.5618,3.5629,3.5639,3.5793,0,0,3.5671,3.5676,0,0,0,0,0,0,0,0,3.5168,3.5188,3.5351,3.5353,3.5356,3.5463,3.5452,3.5604,3.5473,3.5428,3.5461,3.5456,3.5574,3.5588,3.5627,3.5801,3.5808,3.5672,3.5679,3.5683,3.5686,0,0,0,0,0,0,0,3.5158,3.5181,3.5411,3.5353,3.5356,3.535,3.5365,3.5481,3.5524,3.5431,3.5429,3.5447,3.5574,3.5616,3.563,3.581,3.5672,3.5682,3.5688,3.5692,3.6122,3.6126,0,0,0,0,0,0,3.5146,3.5173,3.5406,3.5415,3.5249,3.5359,3.5376,3.5433,3.5523,3.5532,3.5451,3.5445,3.56,3.5618,3.5636,3.5823,3.5683,3.5693,3.5699,3.6117,3.6123,3.6128,0,0,0,0,0,0,3.5139,3.5167,3.54,3.5294,3.5323,3.5369,3.5433,3.5439,3.548,3.5537,3.5545,3.5485,3.5598,3.5621,3.5755,3.5828,3.5698,3.5708,3.6111,3.6119,3.6126,3.6198,0,0,0,0,0,0,3.513,3.5164,3.5222,3.5295,3.5329,3.5514,3.5438,3.5445,3.5498,3.5492,3.5572,3.5581,3.5596,3.5739,3.5765,3.584,3.5716,3.6104,3.6114,3.6123,3.6189,3.6207,3.6222,0,0,0,0,0,3.5119,3.5237,3.5225,3.5253,3.5401,3.5518,3.5538,3.5551,3.5504,3.5563,3.5601,3.5578,3.5816,3.5753,3.5782,3.5861,3.61,3.6111,3.6122,3.6182,3.6203,3.6222,0,0,0,0,0,0,3.5171,3.5246,3.5234,3.5379,3.5442,3.5512,3.5586,3.5573,3.5653,3.5644,3.5659,3.5677,3.5814,3.5852,3.578,3.6017,3.5952,3.5969,3.5987,3.6008,3.6024,3.6011,3.5725,0,0,0,0,0,3.52,3.5287,3.5348,3.547,3.5503,3.554,3.5591,3.5596,3.5663,3.569,3.5737,3.5805,3.5895,3.5954,3.604,3.6195,3.6213,3.6265,3.6281,3.6295,3.6309,3.6396,3.642,3.6166,3.6165,3.6165,0,0,3.5259,3.5311,3.5365,3.5482,3.5532,3.5624,3.5562,3.5662,3.5731,3.5706,3.5834,3.5872,3.5949,3.6095,3.6161,3.613,3.6384,3.6309,3.6319,3.6327,3.641,3.6434,3.6456,3.6173,3.6172,3.6171,0,0,3.5414,3.5462,3.5569,3.562,3.5697,3.5721,3.5747,3.5819,3.5843,3.5972,3.5956,3.604,3.6194,3.625,3.6298,3.6479,3.6462,3.6507,3.6592,3.6677,3.6697,3.6715,3.6779,3.6802,3.6522,3.6522,3.6522,0,3.5478,3.5614,3.5626,3.5727,3.578,3.5762,3.5872,3.5922,3.6024,3.6062,3.6025,3.622,3.6271,3.6429,3.6474,3.6514,3.6545,3.6496,3.6693,3.6711,3.6728,3.6789,3.6814,3.6527,3.6526,3.6526,3.6525,0,3.569,3.5785,3.5863,3.5959,3.6022,3.6127,3.6157,3.6219,3.6221,3.6249,3.6383,3.6443,3.6542,3.6581,3.6583,3.6741,3.672,3.6688,3.6623,3.6756,3.6815,3.6838,3.6534,3.6532,3.653,3.6529,0,0,3.5878,3.5983,3.6011,3.6055,3.614,3.6215,3.6321,3.6416,3.6469,3.6542,3.6632,3.6764,3.6737,3.6792,3.6801,3.6875,3.7015,3.6835,3.6837,3.6866,3.7194,3.7216,3.7243,3.7005,3.701,3.7014,3.7188,0,3.604,3.6224,3.624,3.6407,3.6495,3.6482,3.6575,3.6638,3.6669,3.6751,3.6786,3.688,3.6836,3.6869,3.6942,3.6982,3.7081,3.697,3.7091,3.7095,3.707,3.7274,3.7297,3.7458,3.7211,3.7215,3.7217,0,3.6252,3.6329,3.6504,3.6578,3.6616,3.6699,3.6789,3.6867,3.694,3.6958,3.7021,3.7021,3.7133,3.7065,3.722,3.7145,3.7196,3.7224,3.723,3.724,3.7162,3.7289,3.7509,3.7533,3.7253,3.725,3.7248,0,3.6371,3.652,3.6644,3.6682,3.6772,3.6831,3.6871,3.694,3.6997,3.7077,3.7115,3.7207,3.7258,3.7331,3.7357,3.7305,3.7512,3.7445,3.753,3.753,3.7572,3.7569,3.7803,3.7608,3.7608,3.7607,3.7607,0,3.6549,3.6656,3.6698,3.6774,3.6896,3.6915,3.7036,3.7073,3.7135,3.722,3.7216,3.7296,3.7326,3.7413,3.7435,3.7561,3.7584,3.7603,3.7607,3.7602,3.76,3.7634,3.7623,3.7614,3.7612,3.7611,3.761,0,3.6701,3.6733,3.6868,3.6942,3.6964,3.705,3.7115,3.719,3.7221,3.7329,3.7356,3.7405,3.7507,3.7541,3.7665,3.7679,3.7826,3.7821,3.7801,3.7801,3.7884,3.7875,3.8147,3.8184,3.7965,3.7968,3.7969,0,3.6811,3.6893,3.6977,3.7033,3.7076,3.7166,3.7225,3.7249,3.731,3.7401,3.7466,3.7567,3.7648,3.7812,3.786,3.7956,3.7953,3.8042,3.7967,3.796,3.7953,3.7947,3.7956,3.8055,3.8057,3.8059,3.806,0,3.7003,3.7015,3.7099,3.7189,3.7259,3.7331,3.7402,3.7449,3.7483,3.7553,3.7657,3.772,3.7847,3.7947,3.8045,3.809,3.8082,3.8084,3.8109,3.8104,3.8088,3.8097,3.7837,3.8077,3.8075,3.8074,3.8073,3.8073,3.7137,3.721,3.7281,3.7375,3.743,3.7497,3.7571,3.7612,3.7698,3.7801,3.7812,3.7924,3.7999,3.8129,3.8178,3.8268,3.8243,3.8279,3.8288,3.8296,3.8302,3.8076,3.8286,3.8286,3.8285,3.8285,3.8285,0,3.7327,3.7373,3.7459,3.7558,3.7633,3.7619,3.7697,3.7761,3.7859,3.7928,3.8009,3.813,3.8228,3.8285,3.8385,3.8446,3.8445,3.8471,3.8466,3.8477,3.8318,3.8287,3.847,3.847,3.847,3.847,3.847,3.847,3.7435,3.7558,3.758,3.7733,3.7778,3.7887,3.7933,3.7995,3.8051,3.8185,3.8266,3.8303,3.8369,3.8473,3.8564,3.8579,3.8615,3.8644,3.8656,3.8507,3.8488,3.8469,3.8439,3.8652,3.8652,3.8807,3.8808,3.8809]},{"header":{"parameterUnit":"m.s-1","parameterCategory":1,"la1":30.2991,"la2":30.254,"lo1":-89.0895,"lo2":-89.0444,"dx":0.0017,"dy":0.0017,"nx":28,"ny":28,"refTime":"2022-11-26T09:00:00:Z","depth":0,"parameterNumber":3,"parameterNumberName":"V-component_of_WINDS"},"data":[0,0,0,0,0,0,0,0,0,0,0,0,0,0,0,0,0,0,0,0,0,0,0,0,0,0,0,0,0,0,0,0,0,0,0,0,0,0,0,0,0,0,0,0,0,0,0,0,0,0,0,0,0,0,0,0,0,0,2.3551,2.3553,0,2.3701,2.3703,2.3705,2.3734,2.3733,2.3731,2.373,2.3886,2.3891,2.3897,0,0,0,0,0,0,0,0,0,0,0,0,0,2.3292,2.3297,2.3551,2.3553,2.3555,2.3701,2.3703,2.3705,2.3734,2.3732,2.3731,2.373,2.3885,2.3891,2.3897,0,0,0,0,0,0,0,0,0,0,0,0,0,2.342,2.3298,2.3551,2.3587,2.3591,2.37,2.3703,2.3706,2.3734,2.3732,2.3731,2.3729,2.3882,2.389,2.3898,2.3982,0,0,2.3922,2.3925,0,0,0,0,0,0,0,0,2.3412,2.3429,2.358,2.3584,2.359,2.3697,2.3669,2.3798,2.3735,2.368,2.373,2.3728,2.3825,2.3837,2.387,2.399,2.3996,2.3923,2.3928,2.3931,2.3933,0,0,0,0,0,0,0,2.3403,2.3423,2.361,2.3582,2.3588,2.3596,2.3612,2.3694,2.3761,2.3685,2.3687,2.3704,2.3827,2.3862,2.3873,2.3999,2.3923,2.393,2.3934,2.3937,2.4196,2.4198,0,0,0,0,0,0,2.3388,2.3415,2.3606,2.3615,2.3495,2.3602,2.362,2.3664,2.376,2.3773,2.3706,2.3705,2.3849,2.3864,2.3879,2.3985,2.3931,2.3938,2.3943,2.4194,2.4197,2.4199,0,0,0,0,0,0,2.3382,2.3405,2.36,2.3516,2.3541,2.3609,2.3658,2.3668,2.3703,2.3776,2.3788,2.3728,2.3848,2.3868,2.3956,2.399,2.3942,2.3949,2.4192,2.4195,2.4198,2.4196,0,0,0,0,0,0,2.3375,2.3402,2.3434,2.3516,2.3546,2.3674,2.366,2.3672,2.3716,2.3717,2.38,2.3813,2.3848,2.3944,2.3964,2.4,2.3955,2.4189,2.4193,2.4197,2.4193,2.4199,2.4203,0,0,0,0,0,2.3365,2.3428,2.3436,2.3459,2.3587,2.3676,2.3693,2.3732,2.3719,2.3752,2.3799,2.381,2.3983,2.3953,2.3976,2.4015,2.4187,2.4192,2.4197,2.4191,2.4198,2.4203,0,0,0,0,0,0,2.3349,2.344,2.3449,2.354,2.36,2.368,2.3723,2.3738,2.3803,2.3801,2.3848,2.3866,2.3952,2.3993,2.3957,2.4102,2.4084,2.4094,2.4072,2.4079,2.4084,2.4073,2.3962,0,0,0,0,0,2.3356,2.342,2.3496,2.3569,2.3598,2.3656,2.3696,2.3721,2.3785,2.3811,2.3864,2.3926,2.3995,2.4039,2.4107,2.4199,2.4218,2.4237,2.4242,2.4246,2.4254,2.4306,2.4316,2.4215,2.4215,2.4215,0,0,2.3372,2.3429,2.3466,2.3567,2.3616,2.3682,2.3677,2.3746,2.3796,2.3821,2.3908,2.395,2.4023,2.4113,2.4156,2.415,2.4286,2.4252,2.4254,2.426,2.4312,2.4322,2.433,2.4218,2.4218,2.4217,0,0,2.3433,2.3482,2.3549,2.3598,2.3673,2.371,2.3726,2.3805,2.3833,2.3921,2.3942,2.4002,2.4119,2.417,2.4211,2.4292,2.4305,2.4313,2.4339,2.439,2.4398,2.4405,2.4435,2.4445,2.432,2.4321,2.4321,0,2.3443,2.3542,2.3582,2.365,2.3695,2.372,2.3788,2.3835,2.3927,2.3958,2.3949,2.4096,2.4147,2.4251,2.4271,2.4303,2.4323,2.4304,2.4393,2.4401,2.4409,2.4437,2.4448,2.4321,2.4321,2.4321,2.4321,0,2.3551,2.3619,2.3664,2.3752,2.3801,2.387,2.3921,2.3966,2.3987,2.4026,2.4115,2.4177,2.4257,2.4284,2.4305,2.4391,2.4384,2.4384,2.4367,2.4418,2.4446,2.4457,2.4322,2.4322,2.4321,2.4321,0,0,2.3606,2.3716,2.3731,2.3772,2.3856,2.391,2.398,2.4058,2.4096,2.4159,2.422,2.4318,2.4318,2.4365,2.4393,2.4437,2.4498,2.4431,2.4434,2.4442,2.4597,2.4597,2.4609,2.4507,2.4509,2.4511,2.4591,0,2.3678,2.3803,2.3841,2.3945,2.4009,2.4035,2.4096,2.4154,2.4193,2.4253,2.4296,2.4365,2.436,2.4389,2.4434,2.4481,2.453,2.4476,2.4564,2.4567,2.4546,2.4624,2.4624,2.4697,2.4602,2.4604,2.4606,0,2.3779,2.3843,2.3954,2.403,2.4058,2.4112,2.4187,2.4244,2.4312,2.4337,2.4389,2.4413,2.4488,2.4467,2.4571,2.4533,2.4572,2.46,2.4604,2.4614,2.459,2.4637,2.4721,2.4732,2.4623,2.4622,2.462,0,2.3809,2.3923,2.4004,2.4038,2.4129,2.4167,2.4206,2.4272,2.4316,2.4382,2.4412,2.4485,2.4526,2.4583,2.4626,2.4607,2.4727,2.4709,2.475,2.4749,2.4775,2.4773,2.4867,2.4799,2.4799,2.4798,2.4798,0,2.3885,2.3952,2.4019,2.4069,2.4145,2.4189,2.4263,2.4304,2.4362,2.4421,2.4448,2.4503,2.4557,2.4619,2.4654,2.4735,2.4753,2.4776,2.4785,2.4774,2.4771,2.4801,2.4797,2.4801,2.4801,2.48,2.48,0,2.3932,2.3979,2.4069,2.4148,2.4169,2.4222,2.429,2.434,2.4379,2.4454,2.4474,2.4536,2.4611,2.466,2.4756,2.4779,2.4868,2.4875,2.4845,2.4849,2.4888,2.4884,2.5004,2.5023,2.4941,2.4942,2.4943,0,2.3978,2.403,2.4114,2.4155,2.4195,2.4261,2.4306,2.4351,2.4398,2.4479,2.4519,2.4596,2.4659,2.4778,2.4832,2.4906,2.4915,2.4953,2.4927,2.4915,2.4917,2.4913,2.4919,2.4957,2.4958,2.4958,2.4959,0,2.4054,2.4075,2.4139,2.4212,2.4265,2.4325,2.4385,2.4417,2.4473,2.4524,2.46,2.465,2.4747,2.4823,2.4902,2.4944,2.4961,2.4966,2.498,2.497,2.4951,2.4962,2.4857,2.4963,2.4963,2.4963,2.4962,2.4962,2.4103,2.415,2.4217,2.4287,2.4337,2.4392,2.4443,2.4489,2.4553,2.4636,2.4659,2.4739,2.4806,2.4913,2.4956,2.502,2.5016,2.5036,2.5041,2.5045,2.5046,2.494,2.5035,2.5035,2.5035,2.5035,2.5035,0,2.4181,2.4225,2.429,2.4372,2.4428,2.4438,2.4505,2.4551,2.4621,2.4682,2.4744,2.4832,2.4906,2.4966,2.5043,2.5082,2.5092,2.5101,2.5099,2.5109,2.5045,2.5026,2.5092,2.5092,2.5092,2.5092,2.5092,2.5092,2.4228,2.4309,2.4338,2.4445,2.4489,2.4567,2.4604,2.4656,2.4704,2.4802,2.4863,2.4901,2.4962,2.5043,2.5112,2.5128,2.5155,2.5162,2.518,2.5119,2.5113,2.5107,2.5089,2.5168,2.5168,2.5239,2.5239,2.524]}]]